FW5472 Weather Reports


Display with metric or nautical units.
time (UTC)temp
F
wind
direction
speed
MPH
gust
MPH
rain 1hr
in
rain 24hr
in
rain mn
in
humidity
%
barometer
mb
20260505193035 71 312 10.0 19.0 0.00 0.00 0.00 52 1015.0
20260505191537 71 318 9.0 18.0 0.00 0.00 0.00 52 1015.2
20260505190033 70 314 8.0 17.0 0.00 0.00 0.00 52 1015.2
20260505184643 70 315 9.0 20.0 0.00 0.00 0.00 52 1015.4
20260505183035 70 314 9.0 18.0 0.00 0.00 0.00 53 1015.4
20260505181536 69 317 9.0 16.0 0.00 0.00 0.00 54 1015.4
20260505174617 68 316 10.0 17.0 0.00 0.00 0.00 56 1015.5
20260505174607 67 320 11.0 19.0 0.00 0.00 0.00 56 1015.4
20260505171606 67 316 10.0 16.0 0.00 0.00 0.00 58 1015.4
20260505170037 66 315 10.0 19.0 0.00 0.00 0.00 59 1015.4
20260505164530 66 320 10.0 17.0 0.00 0.00 0.00 60 1015.4
20260505163119 65 318 10.0 18.0 0.00 0.00 0.00 62 1015.4
20260505161609 63 319 10.0 18.0 0.00 0.00 0.00 66 1015.5
20260505153030 61 313 8.0 17.0 0.00 0.00 0.00 71 1015.3
20260505151534 60 320 7.0 14.0 0.00 0.00 0.00 73 1015.2
20260505130144 57 319 6.0 11.0 0.00 0.00 0.00 77 1013.9
20260505124608 57 318 5.0 12.0 0.00 0.00 0.00 77 1013.8
20260505123036 57 319 6.0 11.0 0.00 0.00 0.00 76 1013.6
20260505121534 58 328 5.0 10.0 0.00 0.00 0.00 76 1013.5
20260505114534 58 332 5.0 10.0 0.00 0.00 0.00 75 1013.3
20260505113032 58 332 5.0 13.0 0.00 0.00 0.00 75 1013.2
20260505111534 59 327 6.0 11.0 0.00 0.00 0.00 75 1013.0
20260505100031 62 311 5.0 10.0 0.00 0.00 0.00 69 1012.4
20260505094651 63 306 5.0 8.0 0.00 0.00 0.00 68 1012.4
20260505091651 64 310 6.0 13.0 0.00 0.00 0.00 68 1012.2
20260505084537 63 329 5.0 11.0 0.00 0.00 0.00 71 1012.0
20260505083032 62 335 5.0 14.0 0.00 0.00 0.00 72 1012.1
20260505081535 62 340 4.0 7.0 0.00 0.00 0.00 73 1012.0
20260505080034 61 349 2.0 7.0 0.00 0.00 0.00 71 1012.0
20260505074535 62 328 0.0 5.0 0.00 0.00 0.00 69 1011.9
20260505073036 64 301 0.0 3.0 0.00 0.00 0.00 67 1011.8
20260505071536 65 330 4.0 9.0 0.00 0.00 0.00 66 1011.6
20260505070151 65 332 6.0 12.0 0.00 0.00 0.00 63 1011.4
20260505064533 65 6 2.0 6.0 0.00 0.00 0.00 61 1011.5
20260505063030 67 271 0.0 5.0 0.00 0.00 0.00 58 1011.4
20260505061538 68 293 5.0 11.0 0.00 0.00 0.00 58 1011.1
20260505060036 68 313 8.0 17.0 0.00 0.00 0.00 57 1011.0
20260505054535 69 313 8.0 15.0 0.00 0.00 0.00 54 1010.8
20260505053033 69 298 9.0 15.0 0.00 0.00 0.00 53 1010.8
20260505051538 69 298 8.0 13.0 0.00 0.00 0.00 54 1010.9
20260505041537 69 353 4.0 10.0 0.00 0.00 0.00 55 1010.2
20260505034534 69 335 4.0 9.0 0.00 0.00 0.00 55 1009.8
20260505033107 70 325 5.0 11.0 0.00 0.00 0.00 54 1009.6
20260505031534 72 299 2.0 6.0 0.00 0.00 0.00 51 1009.4
20260505030037 73 307 4.0 11.0 0.00 0.00 0.00 50 1009.2
20260505023036 76 304 6.0 11.0 0.00 0.00 0.00 46 1009.1
20260505021535 77 319 8.0 14.0 0.00 0.00 0.00 45 1009.0
20260505020035 78 307 7.0 14.0 0.00 0.00 0.00 44 1009.1
20260505013036 79 308 9.0 19.0 0.00 0.00 0.00 42 1009.0
20260505010107 81 310 10.0 20.0 0.00 0.00 0.00 40 1009.0
20260505003036 83 310 9.0 18.0 0.00 0.00 0.00 38 1009.1
20260505001531 84 312 9.0 16.0 0.00 0.00 0.00 38 1009.2
20260504234534 85 314 8.0 17.0 0.00 0.00 0.00 37 1009.1
20260504233106 85 310 8.0 14.0 0.00 0.00 0.00 37 1009.1
20260504231642 86 310 8.0 15.0 0.00 0.00 0.00 36 1009.2
20260504230031 86 311 7.0 15.0 0.00 0.00 0.00 36 1009.4
20260504224532 86 311 7.0 13.0 0.00 0.00 0.00 36 1009.6
20260504223035 85 321 8.0 16.0 0.00 0.00 0.00 37 1009.7
20260504221537 86 312 8.0 16.0 0.00 0.00 0.00 36 1009.8
20260504213030 84 311 9.0 16.0 0.00 0.00 0.00 37 1010.1
20260504211535 83 318 9.0 15.0 0.00 0.00 0.00 38 1010.3
20260504210036 82 312 8.0 14.0 0.00 0.00 0.00 39 1010.4
20260504204532 81 305 8.0 13.0 0.00 0.00 0.00 40 1010.6
20260504203033 80 304 7.0 15.0 0.00 0.00 0.00 41 1010.7
20260504201534 79 311 8.0 14.0 0.00 0.00 0.00 43 1010.9
20260504200037 78 307 8.0 15.0 0.00 0.00 0.00 43 1011.1